Location: Asheville, NC
(35.6000°N, 82.5500°W)
Time: 11:51:24
(UTC-04:00)

DX 1 - Visible Passes

Search period start: 19 June 2018 00:00
Search period end: 29 June 2018 00:00
Orbit: 620 x 631 km, 98.4° (Epoch: 19 June)

Date Brightness Start Highest point End Pass type
(mag) Time Alt. Az. Time Alt. Az. Time Alt. Az.
19 Jun ? 02:00:30 10° ENE 02:01:24 11° ENE 02:02:18 10° NE visible
19 Jun ? 03:37:32 56° WNW 03:37:32 56° WNW 03:41:18 10° NNW visible
20 Jun ? 02:19:27 16° E 02:20:09 17° ENE 02:22:58 10° NNE visible
20 Jun ? 03:56:43 34° WNW 03:56:43 34° WNW 04:00:02 10° NNW visible
21 Jun ? 02:38:38 27° ENE 02:38:58 27° ENE 02:42:38 10° NNE visible
21 Jun ? 04:15:55 21° WNW 04:15:55 21° WNW 04:18:28 10° NW visible
22 Jun ? 02:57:49 43° ENE 02:57:49 43° ENE 03:01:58 10° N visible
22 Jun ? 04:35:06 13° W 04:35:06 13° W 04:36:21 10° WNW visible
23 Jun ? 03:17:01 70° NE 03:17:01 70° NE 03:21:05 10° N visible
24 Jun ? 03:36:12 60° WNW 03:36:12 60° WNW 03:40:02 10° NNW visible
25 Jun ? 02:18:07 15° E 02:18:53 16° ENE 02:21:34 10° NNE visible
25 Jun ? 03:55:24 36° WNW 03:55:24 36° WNW 03:58:47 10° NNW visible
26 Jun ? 02:37:19 25° ENE 02:37:41 25° ENE 02:41:16 10° NNE visible
26 Jun ? 04:14:36 22° WNW 04:14:36 22° WNW 04:17:16 10° NW visible
27 Jun ? 02:56:31 41° ENE 02:56:32 41° ENE 03:00:38 10° N visible
27 Jun ? 04:33:48 14° W 04:33:48 14° W 04:35:16 10° WNW visible
28 Jun ? 03:15:43 66° NE 03:15:43 66° NE 03:19:47 10° N visible
